Volver al catálogo

CZ-6A DEB

ActivoPO
NORAD 56583·DEBRIS·🇨🇳 China

Lanzado Nov 11, 2022 desde Taiyuan Satellite Launch Center

Loading…

Próximos Pases (próximas 24 horas)

TLE

ActualizadoSource: Space-Track

Época: Sep 14, 2026, 04:57 UTC

1 56583U 22151ADF 26257.20639675  .00020937  00000-0  17477-2 0  9997
2 56583  98.6189 350.7903 0044132 289.6097  70.0361 14.97827590186657

Sigue CZ-6A DEB en tiempo real con AllMySat

Download on the App Store